| time (UTC) | temp F | wind direction | speed knots | gust knots | rain 1hr in | rain 24hr in | rain mn in | humidity % | barometer mb |
| 20260508210042 | 69 | 173 | 3.5 | 7.8 | 0.00 | 0.00 | 0.00 | 50 | 1014.3 |
| 20260508204546 | 69 | 146 | 1.7 | 8.7 | 0.00 | 0.00 | 0.00 | 49 | 1014.3 |
| 20260508203051 | 69 | 0 | 2.6 | 7.0 | 0.00 | 0.00 | 0.00 | 48 | 1014.3 |
| 20260508201555 | 69 | 178 | 2.6 | 7.8 | 0.00 | 0.00 | 0.00 | 48 | 1014.5 |
| 20260508200055 | 70 | 163 | 2.6 | 8.7 | 0.00 | 0.00 | 0.00 | 46 | 1014.7 |
| 20260508194538 | 70 | 195 | 5.2 | 8.7 | 0.00 | 0.00 | 0.00 | 45 | 1015.0 |
| 20260508193053 | 71 | 213 | 2.6 | 7.0 | 0.00 | 0.00 | 0.00 | 43 | 1015.2 |
| 20260508191544 | 71 | 192 | 3.5 | 11.3 | 0.00 | 0.00 | 0.00 | 44 | 1015.6 |
| 20260508190050 | 70 | 169 | 4.3 | 8.7 | 0.00 | 0.00 | 0.00 | 44 | 1015.5 |
| 20260508184540 | 70 | 198 | 4.3 | 9.6 | 0.00 | 0.00 | 0.00 | 43 | 1015.9 |
| 20260508183041 | 69 | 184 | 5.2 | 9.6 | 0.00 | 0.00 | 0.00 | 44 | 1016.0 |
| 20260508181607 | 69 | 74 | 5.2 | 9.6 | 0.00 | 0.00 | 0.00 | 42 | 1016.1 |
| 20260508174545 | 69 | 242 | 0.9 | 10.4 | 0.00 | 0.00 | 0.00 | 48 | 1016.5 |
| 20260508173049 | 68 | 244 | 4.3 | 10.4 | 0.00 | 0.00 | 0.00 | 49 | 1016.7 |
| 20260508171540 | 68 | 198 | 2.6 | 8.7 | 0.00 | 0.00 | 0.00 | 46 | 1016.9 |
| 20260508170039 | 68 | 162 | 3.5 | 8.7 | 0.00 | 0.00 | 0.00 | 47 | 1017.2 |
| 20260508164545 | 67 | 132 | 4.3 | 9.6 | 0.00 | 0.00 | 0.00 | 46 | 1017.4 |
| 20260508163045 | 67 | 121 | 1.7 | 7.0 | 0.00 | 0.00 | 0.00 | 45 | 1017.5 |
| 20260508161546 | 67 | 123 | 3.5 | 8.7 | 0.00 | 0.00 | 0.00 | 46 | 1017.8 |
| 20260508160044 | 66 | 89 | 1.7 | 4.3 | 0.00 | 0.00 | 0.00 | 51 | 1018.0 |
| 20260508154553 | 66 | 134 | 3.5 | 7.0 | 0.00 | 0.00 | 0.00 | 47 | 1018.4 |
| 20260508153043 | 65 | 70 | 2.6 | 7.0 | 0.00 | 0.00 | 0.00 | 48 | 1018.3 |
| 20260508151546 | 64 | 196 | 2.6 | 7.0 | 0.00 | 0.00 | 0.00 | 50 | 1018.3 |
| 20260508150043 | 63 | 0 | 3.5 | 9.6 | 0.00 | 0.00 | 0.00 | 53 | 1018.5 |
| 20260508144539 | 62 | 190 | 0.9 | 6.1 | 0.00 | 0.00 | 0.00 | 54 | 1018.6 |
| 20260508143037 | 62 | 125 | 2.6 | 5.2 | 0.00 | 0.00 | 0.00 | 58 | 1018.7 |
| 20260508141554 | 61 | 205 | 0.9 | 5.2 | 0.00 | 0.00 | 0.00 | 57 | 1018.7 |
| 20260508140053 | 60 | 263 | 1.7 | 3.5 | 0.00 | 0.00 | 0.00 | 64 | 1018.6 |
| 20260508134543 | 58 | 0 | 0.0 | 2.6 | 0.00 | 0.00 | 0.00 | 68 | 1018.7 |
| 20260508133040 | 58 | 275 | 1.7 | 3.5 | 0.00 | 0.00 | 0.00 | 68 | 1018.8 |
| 20260508131535 | 57 | 165 | 0.0 | 3.5 | 0.00 | 0.00 | 0.00 | 70 | 1018.6 |
| 20260508130034 | 55 | 162 | 0.9 | 5.2 | 0.00 | 0.00 | 0.00 | 74 | 1018.5 |
| 20260508124543 | 53 | 0 | 0.0 | 0.9 | 0.00 | 0.01 | 0.00 | 79 | 1018.4 |
| 20260508123044 | 52 | 0 | 0.9 | 3.5 | 0.00 | 0.01 | 0.00 | 82 | 1018.4 |
| 20260508121544 | 50 | 99 | 0.9 | 2.6 | 0.00 | 0.01 | 0.00 | 88 | 1018.3 |
| 20260508120052 | 49 | 99 | 0.9 | 4.3 | 0.00 | 0.01 | 0.00 | 92 | 1018.1 |
| 20260508114545 | 47 | 0 | 0.0 | 0.9 | 0.00 | 0.10 | 0.00 | 94 | 1017.9 |
| 20260508113053 | 46 | 0 | 0.0 | 0.9 | 0.00 | 0.10 | 0.00 | 94 | 1017.6 |
| 20260508111554 | 45 | 0 | 0.0 | 0.0 | 0.00 | 0.10 | 0.00 | 93 | 1017.4 |
| 20260508110056 | 44 | 0 | 0.0 | 0.0 | 0.00 | 0.10 | 0.00 | 92 | 1017.1 |
| 20260508104537 | 45 | 0 | 0.0 | 0.0 | 0.00 | 0.11 | 0.00 | 92 | 1017.0 |
| 20260508103104 | 45 | 0 | 0.0 | 0.0 | 0.00 | 0.11 | 0.00 | 92 | 1016.5 |
| 20260508101549 | 45 | 0 | 0.0 | 0.9 | 0.00 | 0.11 | 0.00 | 91 | 1016.2 |
| 20260508100045 | 46 | 20 | 0.0 | 0.9 | 0.00 | 0.11 | 0.00 | 91 | 1015.9 |
| 20260508094601 | 46 | 0 | 0.0 | 1.7 | 0.00 | 0.11 | 0.00 | 90 | 1015.9 |
| 20260508093040 | 46 | 20 | 0.0 | 1.7 | 0.00 | 0.11 | 0.00 | 90 | 1015.9 |
| 20260508091544 | 47 | 0 | 0.0 | 0.9 | 0.00 | 0.11 | 0.00 | 89 | 1015.8 |
| 20260508090058 | 47 | 20 | 0.9 | 2.6 | 0.00 | 0.11 | 0.00 | 88 | 1015.7 |
| 20260508084544 | 48 | 0 | 0.0 | 0.9 | 0.00 | 0.11 | 0.00 | 87 | 1015.6 |
| 20260508083055 | 49 | 0 | 0.0 | 1.7 | 0.00 | 0.11 | 0.00 | 86 | 1015.6 |
| 20260508081542 | 50 | 20 | 0.0 | 0.9 | 0.00 | 0.11 | 0.00 | 84 | 1015.4 |
| 20260508080037 | 50 | 0 | 0.0 | 4.3 | 0.00 | 0.11 | 0.00 | 82 | 1015.5 |
| 20260508074550 | 52 | 0 | 0.0 | 3.5 | 0.00 | 0.11 | 0.00 | 80 | 1015.3 |
| 20260508073044 | 53 | 272 | 0.0 | 2.6 | 0.00 | 0.11 | 0.00 | 77 | 1015.2 |
| 20260508071544 | 53 | 272 | 0.9 | 2.6 | 0.00 | 0.11 | 0.00 | 76 | 1015.2 |
| 20260508070043 | 54 | 272 | 0.9 | 3.5 | 0.00 | 0.11 | 0.00 | 75 | 1015.0 |
| 20260508064550 | 54 | 271 | 2.6 | 7.8 | 0.00 | 0.12 | 0.00 | 75 | 1015.0 |
| 20260508063047 | 54 | 279 | 1.7 | 6.1 | 0.00 | 0.12 | 0.00 | 75 | 1015.0 |
| 20260508061549 | 54 | 263 | 1.7 | 5.2 | 0.00 | 0.12 | 0.00 | 75 | 1014.9 |
| 20260508060047 | 55 | 275 | 0.9 | 5.2 | 0.00 | 0.12 | 0.00 | 75 | 1014.9 |
| 20260508054545 | 55 | 288 | 0.9 | 5.2 | 0.00 | 0.17 | 0.00 | 74 | 1015.0 |
| 20260508053040 | 55 | 286 | 0.9 | 3.5 | 0.00 | 0.17 | 0.00 | 73 | 1015.0 |
| 20260508051539 | 56 | 290 | 1.7 | 7.0 | 0.00 | 0.17 | 0.00 | 72 | 1015.0 |
| 20260508050046 | 56 | 327 | 3.5 | 7.0 | 0.00 | 0.17 | 0.00 | 71 | 1014.9 |
| 20260508044544 | 56 | 302 | 1.7 | 7.8 | 0.00 | 0.21 | 0.00 | 71 | 1014.7 |
| 20260508043049 | 56 | 322 | 0.9 | 3.5 | 0.00 | 0.21 | 0.00 | 71 | 1014.7 |
| 20260508041540 | 56 | 321 | 2.6 | 7.0 | 0.00 | 0.21 | 0.00 | 71 | 1014.7 |
| 20260508040041 | 56 | 0 | 1.7 | 3.5 | 0.00 | 0.21 | 0.00 | 71 | 1014.6 |
| 20260508034549 | 56 | 278 | 0.9 | 2.6 | 0.00 | 0.21 | 0.21 | 69 | 1014.7 |
| 20260508033044 | 57 | 248 | 1.7 | 7.8 | 0.00 | 0.21 | 0.21 | 69 | 1014.7 |
| 20260508031544 | 57 | 254 | 3.5 | 8.7 | 0.00 | 0.21 | 0.21 | 68 | 1014.6 |
| 20260508030045 | 57 | 274 | 4.3 | 7.8 | 0.00 | 0.21 | 0.21 | 68 | 1014.5 |
| 20260508024544 | 56 | 270 | 4.3 | 8.7 | 0.00 | 0.23 | 0.21 | 69 | 1014.4 |
| 20260508023049 | 56 | 246 | 2.6 | 7.0 | 0.00 | 0.23 | 0.21 | 71 | 1014.3 |
| 20260508021546 | 57 | 251 | 0.0 | 5.2 | 0.00 | 0.23 | 0.21 | 70 | 1014.1 |
| 20260508020044 | 57 | 333 | 2.6 | 11.3 | 0.00 | 0.23 | 0.21 | 70 | 1014.0 |
| 20260508014551 | 57 | 319 | 3.5 | 8.7 | 0.00 | 0.27 | 0.21 | 70 | 1013.8 |
| 20260508013045 | 57 | 279 | 2.6 | 8.7 | 0.00 | 0.27 | 0.21 | 68 | 1013.5 |
| 20260508011546 | 57 | 316 | 2.6 | 7.8 | 0.00 | 0.27 | 0.21 | 68 | 1013.3 |
| 20260508010043 | 57 | 277 | 3.5 | 7.0 | 0.00 | 0.27 | 0.21 | 68 | 1013.1 |
| 20260508004538 | 58 | 331 | 2.6 | 7.0 | 0.00 | 0.38 | 0.21 | 66 | 1012.9 |
| 20260508003053 | 58 | 351 | 3.5 | 7.0 | 0.00 | 0.38 | 0.21 | 65 | 1012.7 |
| 20260508001545 | 59 | 310 | 3.5 | 8.7 | 0.00 | 0.38 | 0.21 | 64 | 1012.3 |
| 20260508000045 | 60 | 271 | 5.2 | 13.9 | 0.00 | 0.38 | 0.21 | 62 | 1012.2 |
| 20260507234540 | 61 | 294 | 2.6 | 14.8 | 0.00 | 0.44 | 0.21 | 61 | 1012.2 |
| 20260507233040 | 61 | 284 | 6.1 | 14.8 | 0.00 | 0.44 | 0.21 | 63 | 1012.1 |
| 20260507231541 | 61 | 317 | 7.8 | 18.2 | 0.00 | 0.44 | 0.21 | 64 | 1011.9 |
| 20260507230044 | 61 | 280 | 7.0 | 20.9 | 0.00 | 0.44 | 0.21 | 65 | 1011.7 |
| 20260507224559 | 62 | 275 | 9.6 | 20.0 | 0.00 | 0.44 | 0.21 | 64 | 1011.3 |
| 20260507223052 | 63 | 329 | 7.0 | 15.6 | 0.00 | 0.44 | 0.21 | 64 | 1010.9 |
| 20260507221537 | 65 | 269 | 6.1 | 15.6 | 0.00 | 0.44 | 0.21 | 64 | 1010.9 |
| 20260507220045 | 67 | 289 | 6.1 | 18.2 | 0.00 | 0.44 | 0.21 | 62 | 1010.6 |
| 20260507214542 | 68 | 315 | 6.1 | 16.5 | 0.00 | 0.44 | 0.21 | 61 | 1009.9 |
| 20260507213041 | 69 | 273 | 7.8 | 17.4 | 0.00 | 0.44 | 0.21 | 61 | 1009.6 |
| 20260507211549 | 69 | 317 | 5.2 | 15.6 | 0.00 | 0.44 | 0.21 | 62 | 1009.3 |